Weather History for Bakersfield, CA

Change the Weather History Date:

Sunday, May 26, 2013

  Actual Average Record
Temperature  
Mean Temperature 68 °F 73 °F  
Max Temperature 81 °F 86 °F 107 °F (1951)
Min Temperature 55 °F 60 °F 40 °F (1918)
Degree Days  
Heating Degree Days 0    
Month to date heating degree days 6  
Since 1 July heating degree days 1829  
Cooling Degree Days 3    
Month to date cooling degree days 216  
Year to date cooling degree days 346  
Growing Degree Days 18 (Base 50)    
Moisture  
Dew Point 41 °F    
Average Humidity 39    
Maximum Humidity 55    
Minimum Humidity 23    
Precipitation  
Precipitation 0.00 in 0.00 in 0.78 in (1971)
Month to date precipitation 0.05 0.16  
Year to date precipitation 2.36 4.29  
Since 1 July precipitation 3.15 6.37  
Snow  
Snow 0.00 in - - ()
Month to date snowfall 0.0  
Since 1 July snowfall 0.0  
Snow Depth 0.00 in    
Sea Level Pressure  
Sea Level Pressure 30.01 in    
Wind  
Wind Speed 7 mph (NW)    
Max Wind Speed 18 mph    
Max Gust Speed 25 mph    
Visibility 10 miles    
Events      
T = Trace of Precipitation, MM = Missing Value Source: NWS Daily Summary

Daily Weather History Graph

Daily Weather History Graph

Search for Another Location

Airport:

Trip Planner

Search our weather history database for the weather conditions in past years. The results will help you decide how hot, cold, wet, or windy it might be!

Date:

Astronomy

May. 26, 2013 Rise Set
Actual Time 5:44 AM PDT 8:02 PM PDT
Civil Twilight 5:15 AM PDT 8:31 PM PDT
Nautical Twilight 4:39 AM PDT 9:07 PM PDT
Astronomical Twilight 4:01 AM PDT 9:46 PM PDT
Moon 9:55 PM PDT (5/26) 7:18 AM PDT (5/26)
Length of Visible Light 15h 15m
Length of Day
14h 17m
Waning Gibbous, 96% of the Moon is Illuminated
May 26
Waning Gibbous
May 31
Last Quarter
Jun 8
New
Jun 16
First Quarter
Jun 23
Full

Hourly Weather History & Observations

Time (PDT) Temp. Dew Point Humidity Pressure Visibility Wind Dir Wind Speed Gust Speed Precip Events Conditions
12:54 AM 63.0 °F 39.0 °F 41% 29.96 in 10.0 mi NNW 10.4 mph - N/A   Clear
1:54 AM 62.1 °F 39.0 °F 43% 29.98 in 10.0 mi Calm Calm - N/A   Clear
2:54 AM 62.1 °F 39.0 °F 43% 29.99 in 10.0 mi North 4.6 mph - N/A   Clear
3:54 AM 57.9 °F 39.0 °F 49% 29.99 in 10.0 mi NNW 4.6 mph - N/A   Clear
4:54 AM 57.9 °F 39.0 °F 49% 30.00 in 10.0 mi WNW 4.6 mph - N/A   Clear
5:54 AM 55.0 °F 39.9 °F 57% 30.02 in 10.0 mi Calm Calm - N/A   Clear
6:54 AM 59.0 °F 39.9 °F 49% 30.04 in 10.0 mi NW 3.5 mph - N/A   Clear
7:54 AM 61.0 °F 39.9 °F 46% 30.05 in 10.0 mi NW 6.9 mph - N/A   Clear
8:54 AM 63.0 °F 41.0 °F 45% 30.07 in 10.0 mi WNW 6.9 mph - N/A   Clear
9:54 AM 66.9 °F 42.1 °F 40% 30.08 in 10.0 mi NW 11.5 mph 16.1 mph N/A   Clear
10:54 AM 69.1 °F 41.0 °F 36% 30.07 in 10.0 mi NW 6.9 mph - N/A   Clear
11:54 AM 72.0 °F 42.1 °F 34% 30.06 in 10.0 mi West 8.1 mph 16.1 mph N/A   Clear
12:54 PM 73.9 °F 42.1 °F 32% 30.05 in 10.0 mi Variable 6.9 mph - N/A   Clear
1:54 PM 75.9 °F 42.1 °F 30% 30.03 in 10.0 mi NW 10.4 mph 16.1 mph N/A   Clear
2:54 PM 79.0 °F 42.1 °F 27% 30.01 in 10.0 mi West 12.7 mph 16.1 mph N/A   Clear
3:54 PM 79.0 °F 41.0 °F 26% 30.00 in 10.0 mi West 12.7 mph - N/A   Clear
4:54 PM 81.0 °F 42.1 °F 25% 29.98 in 10.0 mi NW 12.7 mph 17.3 mph N/A   Clear
5:54 PM 81.0 °F 39.9 °F 23% 29.97 in 10.0 mi WNW 12.7 mph 19.6 mph N/A   Clear
6:54 PM 79.0 °F 41.0 °F 26% 29.96 in 10.0 mi NNW 8.1 mph - N/A   Clear
7:54 PM 77.0 °F 39.9 °F 26% 29.97 in 10.0 mi NNW 6.9 mph - N/A   Clear
8:54 PM 73.0 °F 39.9 °F 30% 29.98 in 10.0 mi North 5.8 mph - N/A   Clear
9:54 PM 72.0 °F 43.0 °F 35% 30.00 in 10.0 mi NNW 8.1 mph - N/A   Clear
10:54 PM 70.0 °F 43.0 °F 38% 30.01 in 10.0 mi North 8.1 mph - N/A   Clear
11:54 PM 66.9 °F 43.0 °F 42% 30.01 in 10.0 mi NNW 6.9 mph - N/A   Clear